Terminal Aerodrome Forecast
Issued by NWS

Home | Current Version | Previous Version | Graphics & Text | Print | Product List | Glossary On
Versions: 1 2 3 4 5 6 7 8 9 10 11 12 13 14 15 16 17 18 19 20
601
FTUS43 KBIS 261733
TAFDIK
TAF
KDIK 261733Z 2618/2718 29009KT P6SM -SHRA VCTS SCT030 BKN040CB
      TEMPO 2618/2622 -TSRA BKN025 OVC040CB
     FM262200 28009KT P6SM VCTS SCT050CB BKN060
     FM270200 31005KT P6SM SCT060 BKN080
     FM270900 29004KT P6SM BKN060
     FM271400 33005KT P6SM SCT040
     FM271600 34006KT P6SM BKN050=

USA.gov is the U.S. government's official web portal to all federal, state and local government web resources and services.